This is the latest recevied weather packets stored in our database for station/object NI0Z. If no packets are shown the sender has not sent any weather packets the latest 10 day(s).
| Time | Temp. | Humidity | Pressure | Rain* | Wind** | Luminosity | Snow |
|---|---|---|---|---|---|---|---|
| 1777830521 | 22.78° C | 48% | - | 0 mm | - | - | - |
| 1777830219 | 22.78° C | 46% | - | 0 mm | - | - | - |
| 1777829914 | 22.78° C | 45% | - | 0 mm | - | - | - |
| 1777829611 | 22.22° C | 49% | - | 0 mm | - | - | - |
| 1777829308 | 22.78° C | 50% | - | 0 mm | - | - | - |
| 1777829006 | 22.22° C | 48% | - | 0 mm | - | - | - |
| 1777828701 | 22.22° C | 48% | - | 0 mm | - | - | - |
| 1777828398 | 22.22° C | 51% | - | 0 mm | - | - | - |
| 1777828096 | 21.67° C | 51% | - | 0 mm | - | - | - |
| 1777827792 | 21.67° C | 49% | - | 0 mm | - | - | - |
| 1777827489 | 21.11° C | 49% | - | 0 mm | - | - | - |
| 1777827187 | 21.11° C | 49% | - | 0 mm | - | - | - |
| 1777826882 | 21.11° C | 50% | - | 0 mm | - | - | - |
| 1777826580 | 21.11° C | 51% | - | 0 mm | - | - | - |
| 1777826276 | 21.11° C | 52% | - | 0 mm | - | - | - |
| 1777825974 | 20.56° C | 52% | - | 0 mm | - | - | - |
| 1777825670 | 20.56° C | 52% | - | 0 mm | - | - | - |
| 1777825369 | 20.56° C | 51% | - | 0 mm | - | - | - |
| 1777825065 | 20° C | 52% | - | 0 mm | - | - | - |
| 1777824761 | 20° C | 52% | - | 0 mm | - | - | - |
| 1777824458 | 20° C | 53% | - | 0 mm | - | - | - |
| 1777824154 | 20° C | 52% | - | 0 mm | - | - | - |
| 1777823850 | 19.44° C | 53% | - | 0 mm | - | - | - |
| 1777823548 | 18.89° C | 54% | - | 0 mm | - | - | - |
| 1777823245 | 18.89° C | 53% | - | 0 mm | - | - | - |
* Rain latest hour (hover to see other rain measurements)
** Current wind speed in m/s (hover to see current wind gust speed)